Location: Schommer Observatory
(40.5200°N, 74.4500°W)
Time: 08:49:52
(UTC-05:00)

Hubble Space Telescope - Visible Passes

Search period start: 20 November 2017 00:00
Search period end: 30 November 2017 00:00
Orbit: 537 x 541 km, 28.5° (Epoch: 19 November)

Date Brightness Start Highest point End Pass type
(mag) Time Alt. Az. Time Alt. Az. Time Alt. Az.
20 Nov 3.6 04:10:00 11° SSE 04:10:00 11° SSE 04:10:29 10° SE visible
20 Nov 3.2 05:46:55 10° SW 05:49:20 15° S 05:51:46 10° SE visible
21 Nov 3.8 04:00:31 10° SE 04:00:31 10° SE 04:00:31 10° SE visible
21 Nov 3.2 05:36:39 10° SW 05:39:01 15° S 05:41:22 10° SSE visible
22 Nov 3.2 05:26:27 10° SW 05:28:40 14° S 05:30:53 10° SSE visible
23 Nov 3.1 05:16:45 11° SSW 05:18:19 13° S 05:20:19 10° SSE visible
24 Nov 3.2 05:07:10 12° SSW 05:07:58 12° SSW 05:09:36 10° SSE visible
25 Nov 3.3 04:57:35 11° SSW 04:57:37 11° SSW 04:58:35 10° S visible
